Location: �perlecques
(50.8057°N, 2.1521°E)
Time: 12:25:51
(UTC+00:00)

YUBILEINY - Visible Passes

Search period start: 02 April 2023 00:00
Search period end: 12 April 2023 00:00
Orbit: 1478 x 1509 km, 82.5° (Epoch: 02 April)

Date Brightness Start Highest point End Pass type
(mag) Time Alt. Az. Time Alt. Az. Time Alt. Az.
02 Apr ? 00:16:55 10° NNW 00:24:23 32° W 00:25:22 32° W visible
02 Apr ? 19:34:38 10° NNE 19:38:29 13° NE 19:42:19 10° ENE visible
02 Apr ? 21:29:52 10° N 21:38:16 45° ENE 21:40:24 39° E visible
02 Apr ? 23:26:50 10° NNW 23:35:18 53° W 23:36:19 51° WSW visible
03 Apr ? 01:26:54 10° NW 01:29:54 12° WNW 01:32:14 11° W visible
03 Apr ? 20:40:31 10° N 20:47:55 29° ENE 20:51:22 22° E visible
03 Apr ? 22:37:01 10° NNW 22:45:54 85° W 22:47:17 68° S visible
04 Apr ? 00:35:08 10° NNW 00:41:24 22° WNW 00:43:12 21° W visible
04 Apr ? 19:51:26 10° N 19:57:08 18° NE 20:02:21 11° E visible
04 Apr ? 21:47:23 10° N 21:56:10 62° ENE 21:58:16 50° ESE visible
04 Apr ? 23:44:43 10° NNW 23:52:33 38° W 23:54:11 35° WSW visible
05 Apr ? 19:03:14 10° NNE 19:05:56 11° NE 19:08:38 10° NE visible
05 Apr ? 20:57:54 10° N 21:06:04 39° ENE 21:09:15 30° ESE visible
05 Apr ? 22:54:43 10° NNW 23:03:22 62° W 23:05:10 53° SW visible
06 Apr ? 00:53:55 10° NW 00:58:15 15° WNW 01:01:05 13° W visible
06 Apr ? 20:08:36 10° N 20:15:35 25° NE 20:20:15 17° E visible
06 Apr ? 22:04:58 10° N 22:13:52 85° E 22:16:10 56° SSE visible
07 Apr ? 00:02:48 10° NNW 00:09:38 26° WNW 00:12:05 23° W visible
07 Apr ? 19:19:40 10° N 19:24:42 16° NE 19:29:43 10° E visible
07 Apr ? 21:15:23 10° N 21:24:02 54° ENE 21:27:11 39° ESE visible
07 Apr ? 23:12:33 10° NNW 23:20:41 44° W 23:23:06 37° WSW visible
08 Apr ? 20:25:57 10° N 20:33:50 34° ENE 20:38:12 23° ESE visible
08 Apr ? 22:22:38 10° NNW 22:31:25 71° W 22:34:08 48° SSW visible
09 Apr ? 00:21:16 10° NNW 00:26:34 18° WNW 00:30:03 14° W visible
09 Apr ? 19:36:43 10° N 19:43:14 22° NE 19:49:15 11° E visible
09 Apr ? 21:32:56 10° N 21:41:49 75° ENE 21:45:10 43° SSE visible
09 Apr ? 23:30:32 10° NNW 23:37:51 31° W 23:41:05 24° WSW visible
10 Apr ? 20:43:23 10° N 20:51:52 47° ENE 20:56:14 29° SE visible
10 Apr ? 22:40:24 10° NNW 22:48:48 51° W 22:52:09 35° SW visible
11 Apr ? 00:40:59 10° NW 00:43:19 11° WNW 00:45:39 10° W visible
11 Apr ? 19:54:00 10° N 20:01:34 30° ENE 20:07:18 16° ESE visible
11 Apr ? 21:50:34 10° NNW 21:59:26 81° W 22:03:13 40° S visible
